******************************************************************************* JPL/HORIZONS (2024 PT5) 2025-Dec-12 17:49:04 Rec #:50567303 (+COV) Soln.date: 2025-Feb-06_06:02:26 # obs: 380 (2024-2025) IAU76/J2000 helio. ecliptic osc. elements (au, days, deg., period=Julian yrs): EPOCH= 2460603.5 ! 2024-Oct-20.00 (TDB) Residual RMS= .41638 EC= .02141074038624791 QR= .9905560642906678 TP= 2460638.129463349 OM= 305.1069316209851 W= 116.8074860094156 IN= 1.518377382131216 A= 1.012228628670663 MA= 326.4855643317721 ADIST= 1.033901193050658 PER= 1.01842 N= .967801185 ANGMOM= .017302991 DAN= 1.02163 DDN= 1.00209 L= 61.9225178 B= 1.3551604 MOID= .00629181 TP= 2024-Nov-23.6294633490 Asteroid physical parameters (km, seconds, rotational period in hours): GM= n.a. RAD= n.a. ROTPER= n.a. H= 27.45 G= .150 B-V= n.a. ALBEDO= n.a. STYP= n.a. ASTEROID comments: 1: soln ref.= JPL#70, OCC=0 2: source=ORB ******************************************************************************* ******************************************************************************* Ephemeris / WWW_USER Fri Dec 12 17:49:04 2025 Pasadena, USA / Horizons ******************************************************************************* Target body name: (2024 PT5) {source: JPL#70} Center body name: Earth (399) {source: DE441} Center-site name: GEOCENTRIC ******************************************************************************* Start time : A.D. 2024-Sep-01 00:00:00.0000 UT Stop time : A.D. 2024-Nov-30 00:00:00.0000 UT Step-size : 1440 minutes ******************************************************************************* Target pole/equ : undefined Target radii : undefined Center geodetic : 0.0, 0.0, -6378.137 {E-lon(deg),Lat(deg),Alt(km)} Center cylindric: 0.0, 0.0, 0.0 {E-lon(deg),Dxy(km),Dz(km)} Center pole/equ : ITRF93 {East-longitude positive} Center radii : 6378.137, 6378.137, 6356.752 km {Equator_a, b, pole_c} Target primary : Sun Vis. interferer : MOON (R_eq= 1737.400) km {source: DE441} Rel. light bend : Sun {source: DE441} Rel. lght bnd GM: 1.3271E+11 km^3/s^2 Small-body perts: Yes {source: SB441-N16} Atmos refraction: NO (AIRLESS) RA format : HMS Time format : CAL Calendar mode : Mixed Julian/Gregorian EOP file : eop.251212.p260310 EOP coverage : DATA-BASED 1962-JAN-20 TO 2025-DEC-12. PREDICTS-> 2026-MAR-09 Units conversion: 1 au= 149597870.700 km, c= 299792.458 km/s, 1 day= 86400.0 s Table cut-offs 1: Elevation (-90.0deg=NO ),Airmass (>38.000=NO), Daylight (NO ) Table cut-offs 2: Solar elongation ( 0.0,180.0=NO ),Local Hour Angle( 0.0=NO ) Table cut-offs 3: RA/DEC angular rate ( 0.0=NO ) ******************************************************************************* Initial IAU76/J2000 heliocentric ecliptic osculating elements (au, days, deg.): EPOCH= 2460603.5 ! 2024-Oct-20.00 (TDB) Residual RMS= .41638 EC= .02141074038624791 QR= .9905560642906678 TP= 2460638.129463349 OM= 305.1069316209851 W= 116.8074860094156 IN= 1.518377382131216 Equivalent ICRF heliocentric cartesian coordinates (au, au/d): X= 8.855344692967808E-01 Y= 4.038039616776921E-01 Z= 2.035007715844342E-01 VX=-8.091608312346892E-03 VY= 1.411272126334326E-02 VZ= 6.183372210525470E-03 Asteroid physical parameters (km, seconds, rotational period in hours): GM= n.a. RAD= n.a. ROTPER= n.a. H= 27.45 G= .150 B-V= n.a. ALBEDO= n.a. STYP= n.a. ******************************************************************************* Date__(UT)__HR:MN delta deldot *************************************************** $$SOE 2024-Sep-01 00:00 0.01316758501203 0.7619885 2024-Sep-02 00:00 0.01360492610362 0.7523889 2024-Sep-03 00:00 0.01403661349075 0.7424235 2024-Sep-04 00:00 0.01446245445545 0.7321555 2024-Sep-05 00:00 0.01488229108890 0.7216422 2024-Sep-06 00:00 0.01529599680874 0.7109347 2024-Sep-07 00:00 0.01570347281466 0.7000782 2024-Sep-08 00:00 0.01610464457759 0.6891115 2024-Sep-09 00:00 0.01649945846942 0.6780683 2024-Sep-10 00:00 0.01688787859931 0.6669764 2024-Sep-11 00:00 0.01726988383121 0.6558590 2024-Sep-12 00:00 0.01764546482468 0.6447338 2024-Sep-13 00:00 0.01801462078906 0.6336125 2024-Sep-14 00:00 0.01837735551128 0.6224989 2024-Sep-15 00:00 0.01873367219338 0.6113867 2024-Sep-16 00:00 0.01908356685101 0.6002569 2024-Sep-17 00:00 0.01942702059904 0.5890770 2024-Sep-18 00:00 0.01976399203724 0.5778022 2024-Sep-19 00:00 0.02009441173656 0.5663813 2024-Sep-20 00:00 0.02041818083611 0.5547651 2024-Sep-21 00:00 0.02073517461059 0.5429146 2024-Sep-22 00:00 0.02104525006593 0.5308059 2024-Sep-23 00:00 0.02134825530964 0.5184319 2024-Sep-24 00:00 0.02164403836449 0.5057989 2024-Sep-25 00:00 0.02193245399785 0.4929232 2024-Sep-26 00:00 0.02221336823417 0.4798269 2024-Sep-27 00:00 0.02248666093364 0.4665354 2024-Sep-28 00:00 0.02275222705296 0.4530754 2024-Sep-29 00:00 0.02300997712437 0.4394741 2024-Sep-30 00:00 0.02325983729431 0.4257583 2024-Oct-01 00:00 0.02350174907686 0.4119542 2024-Oct-02 00:00 0.02373566885075 0.3980870 2024-Oct-03 00:00 0.02396156706979 0.3841803 2024-Oct-04 00:00 0.02417942715377 0.3702553 2024-Oct-05 00:00 0.02438924405643 0.3563305 2024-Oct-06 00:00 0.02459102254156 0.3424213 2024-Oct-07 00:00 0.02478477521143 0.3285396 2024-Oct-08 00:00 0.02497052030541 0.3146928 2024-Oct-09 00:00 0.02514827921775 0.3008842 2024-Oct-10 00:00 0.02531807358448 0.2871114 2024-Oct-11 00:00 0.02547992169218 0.2733648 2024-Oct-12 00:00 0.02563383392396 0.2596262 2024-Oct-13 00:00 0.02577980706781 0.2458665 2024-Oct-14 00:00 0.02591781768028 0.2320447 2024-Oct-15 00:00 0.02604781538542 0.2181090 2024-Oct-16 00:00 0.02616971785346 0.2040017 2024-Oct-17 00:00 0.02628340975324 0.1896680 2024-Oct-18 00:00 0.02638874748955 0.1750665 2024-Oct-19 00:00 0.02648556971782 0.1601781 2024-Oct-20 00:00 0.02657371126605 0.1450086 2024-Oct-21 00:00 0.02665301674697 0.1295851 2024-Oct-22 00:00 0.02672335073086 0.1139482 2024-Oct-23 00:00 0.02678460325973 0.0981442 2024-Oct-24 00:00 0.02683669132055 0.0822194 2024-Oct-25 00:00 0.02687955777989 0.0662169 2024-Oct-26 00:00 0.02691316924865 0.0501758 2024-Oct-27 00:00 0.02693751386283 0.0341316 2024-Oct-28 00:00 0.02695259944080 0.0181171 2024-Oct-29 00:00 0.02695845208857 0.0021630 2024-Oct-30 00:00 0.02695511509498 -0.0137018 2024-Oct-31 00:00 0.02694264785692 -0.0294506 2024-Nov-01 00:00 0.02692112456082 -0.0450592 2024-Nov-02 00:00 0.02689063239744 -0.0605067 2024-Nov-03 00:00 0.02685126917596 -0.0757774 2024-Nov-04 00:00 0.02680314030397 -0.0908610 2024-Nov-05 00:00 0.02674635517748 -0.1057541 2024-Nov-06 00:00 0.02668102305139 -0.1204607 2024-Nov-07 00:00 0.02660724842887 -0.1349934 2024-Nov-08 00:00 0.02652512594421 -0.1493739 2024-Nov-09 00:00 0.02643473468239 -0.1636345 2024-Nov-10 00:00 0.02633613197257 -0.1778185 2024-Nov-11 00:00 0.02622934701151 -0.1919796 2024-Nov-12 00:00 0.02611437525739 -0.2061803 2024-Nov-13 00:00 0.02599117526568 -0.2204847 2024-Nov-14 00:00 0.02585967011490 -0.2349495 2024-Nov-15 00:00 0.02571975517236 -0.2496120 2024-Nov-16 00:00 0.02557131227512 -0.2644806 2024-Nov-17 00:00 0.02541422792523 -0.2795310 2024-Nov-18 00:00 0.02524841125823 -0.2947103 2024-Nov-19 00:00 0.02507380767953 -0.3099476 2024-Nov-20 00:00 0.02489040610733 -0.3251650 2024-Nov-21 00:00 0.02469824028856 -0.3402862 2024-Nov-22 00:00 0.02449738623965 -0.3552416 2024-Nov-23 00:00 0.02428795811458 -0.3699687 2024-Nov-24 00:00 0.02407010419228 -0.3844115 2024-Nov-25 00:00 0.02384400384425 -0.3985180 2024-Nov-26 00:00 0.02360986566560 -0.4122386 2024-Nov-27 00:00 0.02336792651961 -0.4255250 2024-Nov-28 00:00 0.02311845101159 -0.4383295 2024-Nov-29 00:00 0.02286173080544 -0.4506062 2024-Nov-30 00:00 0.02259808319219 -0.4623126 $$EOE ******************************************************************************* Column meaning: TIME Times PRIOR to 1962 are UT1, a mean-solar time closely related to the prior but now-deprecated GMT. Times AFTER 1962 are in UTC, the current civil or "wall-clock" time-scale. UTC is kept within 0.9 seconds of UT1 using integer leap-seconds for 1972 and later years. Conversion from the internal Barycentric Dynamical Time (TDB) of solar system dynamics to the non-uniform civil UT time-scale requested for output has not been determined for UTC times after the next July or January 1st. Therefore, the last known leap-second is used as a constant over future intervals. Time tags refer to the UT time-scale conversion from TDB on Earth regardless of observer location within the solar system, although clock rates may differ due to the local gravity field and no analog to "UT" may be defined for that location. Any 'b' symbol in the 1st-column denotes a B.C. date. First-column blank (" ") denotes an A.D. date. CALENDAR SYSTEM Mixed calendar mode was active such that calendar dates after AD 1582-Oct-15 (if any) are in the modern Gregorian system. Dates prior to 1582-Oct-5 (if any) are in the Julian calendar system, which is automatically extended for dates prior to its adoption on 45-Jan-1 BC. The Julian calendar is useful for matching historical dates. The Gregorian calendar more accurately corresponds to the Earth's orbital motion and seasons. A "Gregorian-only" calendar mode is available if such physical events are the primary interest. NOTE: "n.a." in output means quantity "not available" at the print-time. 'delta deldot' = Apparent range ("delta", light-time aberrated) and range-rate ("delta-dot") of the target center relative to the observer. A positive "deldot" means the target center is moving away from the observer, negative indicates movement toward the observer. Units: AU and KM/S Computations by ... Solar System Dynamics Group, Horizons On-Line Ephemeris System 4800 Oak Grove Drive, Jet Propulsion Laboratory Pasadena, CA 91109 USA General site: https://ssd.jpl.nasa.gov/ Mailing list: https://ssd.jpl.nasa.gov/email_list.html System news : https://ssd.jpl.nasa.gov/horizons/news.html User Guide : https://ssd.jpl.nasa.gov/horizons/manual.html Connect : browser https://ssd.jpl.nasa.gov/horizons/app.html#/x API https://ssd-api.jpl.nasa.gov/doc/horizons.html command-line telnet ssd.jpl.nasa.gov 6775 e-mail/batch https://ssd.jpl.nasa.gov/ftp/ssd/horizons_batch.txt scripts https://ssd.jpl.nasa.gov/ftp/ssd/SCRIPTS Author : Jon.D.Giorgini@jpl.nasa.gov ******************************************************************************* !$$SOF COMMAND = '2024 PT5' QUANTITIES = '20' START_TIME = '2024-Sep-01' STEP_SIZE = '1 day' STOP_TIME = '2024-Nov-30'